Theta_e
297 289 286 286 288 290 292 293 294 294 293 293 292 291 290 289 289 291 291 293 291 291 289 292 291 289 289 290 291 293 293 293 293 293 293 294 295 295 295 296 296 297 298 302 303 303 303 304 305 306 307 307 307 307 307 308 308 309 310 312 312 316 326 330 330 330 330 329 329 329 328 327 329 329 330 330 331 331 332 333 332 331 331 331 330 329
297 287 286 288 289 289 290 291 293 293 293 292 291 290 288 290 286 290 291 293 294 291 288 290 289 289 289 290 291 291 291 290 290 291 292 293 293 294 294 295 295 297 299 300 300 301 302 302 304 305 305 306 305 305 306 306 307 308 310 310 311 314 314 320 328 330 329 330 329 329 328 329 330 329 329 329 330 331 332 332 331 331 331 331 331 330
288 286 288 289 290 290 290 291 292 292 291 291 290 289 288 288 290 290 292 294 295 293 288 289 287 287 289 290 291 290 289 290 292 292 292 293 293 293 293 294 295 296 296 297 298 299 301 302 302 303 304 304 305 305 306 306 306 307 308 308 309 312 314 316 321 327 328 330 331 330 330 329 330 332 332 332 332 333 332 332 331 331 331 331 330 331
283 287 289 290 290 290 291 293 292 291 292 290 289 287 286 289 287 284 290 292 293 293 290 289 287 287 289 290 290 291 290 290 292 293 293 294 293 293 294 294 294 294 295 295 296 297 299 300 301 302 302 302 303 303 304 305 305 306 307 306 308 311 313 317 320 322 327 329 331 331 331 331 330 329 330 331 331 331 331 330 331 331 331 331 330 330
285 288 291 290 290 292 290 291 290 289 287 290 290 288 287 287 288 288 288 290 292 292 294 292 288 286 287 286 288 290 291 290 291 292 293 294 295 296 296 296 296 295 295 295 296 296 297 298 299 300 301 301 301 302 303 304 304 305 306 306 307 308 309 311 314 319 326 327 327 328 329 330 329 329 328 327 327 328 329 329 330 331 331 331 330 331
287 290 290 292 292 292 290 288 288 290 286 287 289 289 289 289 289 289 289 289 288 287 290 290 283 281 286 286 287 288 289 289 291 291 291 293 294 295 294 295 296 296 297 296 296 296 297 297 298 299 300 300 300 300 302 303 304 304 305 305 306 307 308 308 310 313 321 326 325 325 324 323 324 323 324 324 324 326 327 328 330 331 331 331 331 331
287 291 290 291 291 291 290 288 289 291 287 286 286 291 290 289 290 290 287 289 284 282 288 289 283 278 285 285 287 288 288 289 291 291 291 292 293 294 294 295 295 295 295 297 296 297 296 296 297 298 298 299 299 300 301 302 303 304 304 305 305 305 306 308 308 310 311 317 325 326 325 325 324 324 325 326 327 327 329 330 329 330 331 331 331 331
290 289 290 291 291 290 288 287 289 288 288 285 291 290 290 291 291 290 289 289 286 290 291 291 290 282 280 284 287 288 287 288 288 290 291 292 293 293 294 294 295 295 295 295 295 296 296 297 296 296 297 298 298 299 300 301 302 302 303 303 304 304 305 306 307 308 309 309 313 321 325 326 326 325 325 326 327 328 328 329 329 329 330 331 332 331
288 287 287 287 289 288 286 287 290 289 288 288 291 292 291 292 292 292 290 288 287 287 283 286 289 281 279 283 288 287 285 286 287 288 290 291 292 293 293 294 294 295 295 295 295 295 296 296 296 297 297 298 298 298 298 299 300 301 302 302 303 303 304 304 305 306 307 308 308 309 312 318 324 327 327 327 327 327 328 328 329 329 329 330 331 332
289 289 288 288 287 285 287 289 289 289 288 289 291 292 291 292 291 291 288 286 286 284 279 283 286 279 277 281 283 286 284 284 286 288 289 291 291 292 292 293 294 295 295 296 296 296 296 296 297 297 297 297 298 298 298 298 299 300 301 300 301 301 302 303 304 304 305 307 307 307 308 309 311 316 322 326 327 327 328 328 327 327 327 328 329 330
287 291 292 288 285 286 287 290 289 289 289 290 290 291 290 290 289 289 288 287 284 278 279 283 285 283 275 279 280 281 282 285 287 288 290 291 292 292 293 293 293 294 294 294 295 295 296 297 297 297 296 297 297 298 297 297 298 299 299 299 299 300 301 302 302 303 303 305 305 305 307 307 308 309 312 316 320 324 325 325 326 327 327 328 327 329
287 288 287 288 289 290 290 289 291 291 291 290 289 288 286 285 287 285 284 286 278 275 280 283 283 283 274 277 282 285 287 288 288 287 288 290 291 291 292 293 293 293 294 294 294 294 294 294 295 296 295 296 296 296 296 297 297 297 298 298 298 299 299 300 301 302 302 304 303 304 305 305 306 307 308 309 312 316 319 323 324 326 327 327 327 328
283 284 287 288 290 287 287 289 290 292 292 290 288 287 280 277 279 274 279 274 276 274 280 283 284 278 276 280 282 285 286 288 289 289 289 290 291 292 292 293 293 293 293 293 293 293 293 293 293 294 294 295 295 295 296 296 297 297 297 297 297 297 298 299 300 300 301 302 302 302 303 303 304 305 306 307 309 311 314 317 319 321 323 325 326 328
280 286 285 286 289 288 288 285 285 284 287 287 285 282 278 274 272 270 271 273 276 279 282 283 284 277 280 280 284 285 287 289 289 290 291 291 291 292 293 293 293 293 292 292 292 292 292 292 293 294 294 295 295 295 295 296 296 296 296 296 296 296 297 298 299 299 300 300 301 301 301 302 302 303 304 306 307 308 309 311 314 317 319 321 323 325
274 276 280 283 281 287 286 284 284 284 286 285 287 284 280 277 273 269 272 271 274 277 280 282 279 275 275 278 285 287 288 290 290 291 292 292 293 293 294 293 293 292 291 292 292 291 291 292 292 293 294 294 294 295 295 295 295 295 295 295 295 295 296 296 297 298 299 299 300 301 301 301 301 302 302 304 305 306 308 310 311 312 315 318 320 323
276 277 282 287 285 286 284 286 287 285 286 287 287 289 283 279 283 276 277 277 276 277 277 279 278 280 278 285 286 288 289 289 290 290 291 291 292 293 293 292 292 291 291 291 291 291 291 291 291 292 293 293 294 294 294 295 295 295 294 295 294 294 295 296 297 297 298 299 299 300 300 300 301 301 302 302 303 304 305 306 309 310 312 314 316 318
278 275 283 285 287 285 284 287 286 287 279 284 287 281 282 286 284 280 278 279 279 278 274 282 279 279 283 285 286 287 287 287 288 289 289 290 291 292 292 292 292 291 291 290 290 289 290 290 291 291 292 292 293 293 293 293 294 294 294 294 293 294 294 294 295 296 297 298 298 299 300 300 300 300 300 301 301 302 304 305 307 309 311 313 315 317
276 276 283 283 281 286 287 285 289 288 289 286 281 283 287 286 282 281 275 276 276 273 272 278 276 278 278 276 285 285 284 285 286 287 288 289 290 290 291 292 292 290 290 290 289 289 289 290 290 290 291 292 292 293 293 294 294 294 294 293 293 293 292 294 294 295 296 297 297 298 298 299 300 300 300 301 301 302 303 303 305 307 308 309 310 312
280 276 280 282 282 285 289 289 286 288 290 285 282 285 283 277 277 281 278 271 271 269 271 275 277 277 278 278 282 282 283 284 285 287 287 286 287 288 290 292 292 291 289 288 288 288 288 289 289 290 290 292 292 293 293 293 293 293 293 293 293 292 293 293 294 294 295 296 297 298 298 298 299 300 300 300 301 301 301 302 303 305 307 308 309 309
281 275 277 284 283 284 285 285 276 281 288 288 287 284 283 283 279 277 277 276 276 270 270 271 275 274 279 280 281 282 284 285 285 286 286 286 286 287 289 291 291 290 288 288 287 287 288 288 289 289 290 290 291 291 292 292 292 292 292 292 292 293 293 293 293 294 294 295 295 296 297 297 298 299 299 300 300 300 301 302 303 304 306 307 308 309
279 279 273 280 286 285 278 281 278 280 279 281 282 279 281 281 281 280 279 277 275 272 272 272 270 276 279 283 283 283 284 285 285 285 286 285 286 286 288 291 291 289 287 287 287 287 287 288 289 289 290 290 291 291 291 291 291 291 292 291 291 291 291 292 292 293 293 294 295 295 295 296 297 297 298 298 299 299 299 300 300 302 303 305 307 309
279 279 275 278 279 278 279 282 281 282 282 281 281 278 280 279 276 273 271 279 274 274 269 270 270 277 281 285 284 284 286 286 287 286 286 286 285 286 287 290 291 288 287 287 286 287 287 288 288 289 289 290 289 289 289 290 290 290 290 291 291 291 291 291 292 292 293 293 294 294 295 296 296 297 297 297 298 298 298 299 299 300 302 303 305 308
281 278 278 276 276 278 281 282 282 282 284 283 282 279 281 279 278 275 270 272 274 274 274 273 271 275 283 285 285 285 286 286 287 287 286 286 285 285 287 290 291 288 286 286 286 287 287 288 288 288 288 288 288 288 288 289 289 289 290 290 290 290 290 291 291 292 292 293 293 294 295 295 295 296 296 296 297 297 297 298 298 298 299 301 302 306
282 276 275 275 279 281 282 282 279 276 281 282 282 283 282 278 278 277 277 277 275 273 273 273 270 275 282 285 285 286 286 287 287 288 287 287 285 285 286 289 289 287 286 286 286 287 287 287 288 287 287 287 287 287 287 288 288 289 289 289 289 289 290 290 291 291 292 292 293 293 294 294 295 295 295 295 295 296 297 297 297 298 298 299 301 303
276 276 275 272 272 275 278 279 280 279 282 279 279 281 282 282 280 279 278 278 274 274 273 273 269 275 282 285 286 286 285 285 286 287 288 286 285 285 285 288 288 286 285 285 285 286 286 286 286 286 286 286 287 287 287 287 288 288 288 289 288 289 289 290 291 291 291 291 291 292 293 293 293 293 293 294 295 295 296 296 297 297 297 298 300 303
280 275 275 271 267 266 266 268 271 274 277 279 280 280 280 280 278 278 274 275 271 274 273 272 274 279 282 284 285 285 284 284 285 286 288 288 285 284 285 288 287 285 284 284 285 285 285 286 286 286 286 286 286 286 287 287 287 287 288 288 289 289 289 289 290 290 290 291 291 291 291 292 292 292 293 293 294 294 295 296 296 296 297 297 298 301
277 277 274 273 273 272 273 275 278 281 279 275 277 278 278 280 280 279 277 274 273 273 273 276 277 278 279 281 282 284 283 283 283 285 286 285 284 284 285 287 286 284 284 284 284 285 285 285 285 286 286 286 286 286 286 286 287 287 287 287 288 288 288 289 289 289 289 290 290 290 291 291 291 292 293 293 293 294 294 294 295 295 295 297 297 299
276 276 274 272 272 276 278 278 280 279 276 277 276 277 279 278 279 277 275 273 277 274 272 278 279 276 279 281 282 283 283 283 284 285 285 285 283 283 284 287 286 284 284 284 284 284 284 284 285 285 285 285 285 286 286 286 287 287 287 286 287 288 288 288 288 288 289 289 289 289 290 290 291 292 292 292 293 294 294 294 294 294 295 296 296 297
277 274 275 275 275 278 279 278 279 278 278 278 278 278 277 278 278 275 275 278 277 274 274 278 278 277 280 282 283 283 283 283 283 285 285 284 283 283 284 285 284 283 283 283 283 283 283 283 284 284 284 285 285 285 285 286 286 286 286 287 287 287 287 288 288 287 288 288 288 289 290 290 291 291 292 292 292 292 293 293 293 294 294 294 294 296
278 276 277 276 274 275 275 277 278 277 277 277 277 278 279 278 277 277 277 278 277 275 278 279 278 278 281 283 284 284 284 284 284 286 285 283 282 282 283 284 283 282 282 282 283 283 283 284 284 284 284 284 284 284 284 285 285 285 286 286 286 286 287 287 287 287 287 287 287 288 289 289 290 290 290 290 291 292 292 292 293 293 293 293 294 295
277 275 278 274 274 274 276 278 278 278 275 271 276 278 279 279 277 277 277 277 277 276 276 277 277 277 283 285 285 284 284 284 285 284 283 282 282 282 282 283 282 282 282 282 283 283 283 284 284 284 284 284 284 284 284 285 285 285 285 286 286 286 286 287 286 286 286 286 287 287 288 288 288 289 289 290 290 291 291 291 292 292 293 293 293 294
278 275 274 274 274 274 274 275 277 275 273 271 272 274 275 274 272 274 274 277 276 274 275 275 274 276 283 284 284 283 283 283 282 283 282 282 282 282 282 282 282 282 282 282 282 283 283 283 283 283 283 283 284 284 284 284 285 285 284 285 285 286 286 286 286 286 286 286 286 287 287 287 287 287 288 288 289 289 290 291 291 291 291 292 292 292
279 277 275 276 273 273 274 276 274 271 267 268 271 273 276 277 279 279 280 280 280 280 276 274 277 283 284 283 282 282 282 282 282 282 282 282 282 282 282 282 282 282 282 282 282 282 283 283 283 283 283 284 284 284 284 285 284 284 285 284 285 286 285 285 285 285 285 286 286 285 286 286 286 287 287 288 288 289 289 289 289 290 290 290 291 292
279 278 276 279 273 273 274 273 273 271 268 272 280 281 280 278 279 277 278 279 281 282 281 283 284 283 282 282 281 281 281 281 282 283 284 282 281 282 282 283 282 282 283 283 283 283 283 283 283 284 284 284 284 284 285 285 285 285 285 285 285 285 285 284 284 285 284 285 285 285 285 285 285 285 286 287 288 288 289 288 288 289 290 290 290 291
277 278 277 277 273 272 274 274 271 265 270 279 282 283 283 282 281 280 280 282 283 283 282 279 280 281 282 283 282 282 282 283 283 283 283 283 283 282 282 282 282 282 282 282 282 283 283 283 283 283 283 283 284 284 285 285 285 285 284 285 284 284 284 284 284 284 284 284 284 284 284 284 284 285 286 286 287 287 288 288 288 288 289 289 289 290
276 276 277 275 275 275 273 272 264 270 276 279 281 282 283 281 281 281 280 282 283 283 283 281 283 282 282 282 282 283 282 282 283 283 283 283 284 283 282 282 282 283 282 283 283 283 283 283 283 283 283 284 284 284 284 284 284 284 283 284 284 284 283 283 283 283 283 283 283 283 284 284 284 284 285 285 286 286 287 287 287 287 288 288 289 290
279 278 277 274 277 270 271 271 271 275 275 277 278 279 281 280 280 279 276 280 284 284 283 282 282 281 281 281 282 282 282 281 279 280 283 283 284 285 284 283 283 283 284 284 284 284 284 284 283 283 283 283 284 284 284 284 284 283 283 283 283 283 283 283 282 282 282 282 282 283 283 283 283 283 284 284 285 285 286 286 286 286 288 287 288 288
280 277 278 274 273 275 271 270 270 269 266 274 279 282 283 283 283 282 279 277 284 284 284 282 281 280 281 281 281 281 281 277 276 279 283 283 284 285 284 284 284 284 284 284 285 284 284 284 284 284 284 283 283 284 284 284 284 283 282 282 282 282 282 282 282 282 282 282 282 282 283 283 283 283 283 284 284 284 285 286 286 287 287 286 286 287
280 281 279 276 273 274 271 268 267 264 270 278 279 281 282 282 283 282 276 273 281 284 282 282 280 281 281 281 281 280 277 274 275 279 283 282 283 283 282 283 284 284 284 284 284 283 283 283 284 283 283 283 282 283 284 283 283 282 281 282 282 282 281 281 282 282 281 281 282 282 282 283 283 283 283 283 284 284 284 285 285 287 287 287 287 287
276 277 277 274 272 273 271 268 267 269 269 276 278 281 281 282 283 278 269 272 278 280 281 281 280 281 281 281 281 279 276 274 276 280 283 283 283 283 283 283 283 283 284 284 285 284 284 284 283 282 282 282 282 283 283 283 282 282 281 281 282 281 281 281 282 282 282 282 282 282 282 282 283 283 283 283 283 284 284 285 285 286 286 286 286 286
274 274 274 271 272 272 272 270 271 272 278 280 280 282 281 282 281 270 268 277 281 280 281 281 281 282 282 280 281 277 279 280 281 283 283 283 283 283 284 284 284 284 284 284 284 284 284 283 283 282 282 282 283 283 283 283 282 281 281 281 281 280 281 282 282 282 282 281 281 281 282 282 282 282 283 283 283 284 284 284 285 286 286 285 286 286
268 266 269 270 269 269 270 268 269 272 278 281 282 283 282 279 270 270 280 282 282 281 282 282 281 281 281 280 280 280 281 283 283 283 283 282 282 283 283 283 283 284 284 285 284 284 283 283 282 282 282 283 283 283 283 282 281 281 281 280 280 281 282 282 282 282 281 281 281 281 281 281 282 282 282 283 283 282 283 284 285 286 285 285 285 285
272 268 269 269 270 268 267 266 266 265 276 280 280 280 281 275 278 283 281 281 283 282 282 282 281 281 282 280 281 282 282 282 282 282 282 282 282 282 282 282 282 282 283 283 283 284 283 282 282 282 282 283 283 283 282 282 280 280 280 279 280 281 282 282 281 281 280 280 280 280 281 281 281 281 282 281 282 282 282 283 284 285 285 285 284 284
277 271 270 269 272 270 266 265 268 277 281 281 282 278 280 281 284 282 283 281 283 282 282 282 282 282 282 281 281 281 281 281 282 282 282 282 282 282 282 282 283 283 283 283 283 283 283 282 282 282 282 282 282 282 282 281 280 280 279 279 281 281 281 281 281 280 279 279 279 280 280 280 280 281 281 281 281 281 282 282 283 284 284 284 284 284
277 276 277 274 275 272 271 274 280 280 281 283 283 284 284 285 284 282 282 282 281 282 283 282 281 282 282 282 281 281 280 281 281 282 281 281 282 282 282 282 282 282 282 282 283 283 283 282 281 281 281 282 282 282 282 282 280 279 279 280 281 281 280 279 279 279 278 279 279 279 279 280 280 280 280 281 281 281 281 282 283 283 284 284 283 283
279 280 278 275 276 278 279 280 281 281 281 281 283 284 283 283 284 284 283 282 283 283 283 282 282 282 282 282 280 280 280 281 281 281 281 281 282 282 282 282 282 283 283 283 282 282 282 282 281 281 280 280 281 281 281 281 281 279 279 281 281 281 280 279 278 277 277 277 278 278 279 278 279 279 280 280 281 281 282 282 283 283 283 283 283 283
277 277 275 274 276 274 271 280 280 280 281 282 282 284 284 283 283 283 283 282 282 283 283 283 282 282 282 282 281 280 280 281 281 281 281 281 281 281 282 281 282 282 282 282 282 283 282 281 280 280 280 280 281 281 281 281 281 281 281 280 281 280 280 278 277 276 277 277 277 278 278 278 278 279 279 280 281 281 281 282 282 282 283 283 282 282
275 277 275 275 275 273 274 278 280 282 282 281 281 281 281 282 283 283 282 282 283 283 283 282 282 281 281 280 281 280 280 281 280 280 281 281 281 281 281 281 281 282 282 283 283 282 282 281 281 280 280 279 280 281 281 281 280 281 281 281 280 279 279 278 277 277 276 276 277 278 278 278 278 278 278 279 279 279 280 281 282 282 282 282 282 282
276 277 273 276 274 276 278 279 279 280 280 281 282 282 282 282 282 283 283 283 283 281 281 281 281 281 281 281 281 281 280 280 281 281 280 281 281 281 281 281 281 281 282 282 282 282 281 281 280 280 280 280 280 280 280 280 280 280 280 280 280 279 278 277 277 277 277 277 277 277 278 278 278 278 278 278 279 280 280 280 281 281 282 284 284 283
276 273 277 275 272 272 273 277 279 274 275 279 281 282 283 284 283 282 282 281 281 280 281 280 281 281 281 281 280 280 279 280 281 281 280 281 281 281 281 281 281 281 281 282 282 282 281 281 280 280 279 279 280 280 280 279 280 280 280 280 279 279 277 276 276 276 276 277 277 277 277 277 277 277 277 278 278 278 279 282 283 283 283 283 284 284
276 277 277 274 273 273 279 281 282 281 280 281 282 283 283 283 282 280 280 281 281 281 281 281 280 280 281 281 282 281 280 280 280 281 280 280 281 281 281 281 280 280 281 281 281 280 280 280 280 279 279 279 280 280 279 279 279 279 279 279 279 278 277 277 276 276 276 276 277 277 277 276 276 277 277 277 278 278 278 279 281 283 284 284 284 284
Wind_Speed
2 9 9 9 6 7 7 9 9 9 11 12 11 11 10 12 10 5 6 4 3 6 9 11 21 21 18 15 15 13 20 19 17 16 15 15 15 16 16 16 16 17 15 15 16 18 20 20 19 17 16 16 17 18 19 18 17 17 15 15 15 13 11 9 8 8 9 10 8 9 11 11 11 12 12 12 12 12 12 12 11 11 11 12 12 12
2 12 8 5 6 6 6 6 5 7 6 11 11 11 8 8 10 6 7 6 1 5 4 10 24 21 17 15 14 16 22 20 17 16 16 15 15 14 16 17 17 12 11 19 20 22 22 20 22 18 17 20 23 20 19 19 17 15 16 16 15 12 12 11 10 9 9 10 10 10 10 10 10 11 11 11 11 12 12 12 12 11 12 13 13 12
12 11 7 7 5 3 3 2 4 9 9 7 7 8 9 7 9 5 7 6 3 10 10 18 23 16 16 16 17 18 16 14 15 15 14 15 16 15 15 15 16 18 18 18 20 21 21 22 22 18 18 18 18 19 19 18 19 18 17 16 16 13 13 11 11 10 10 10 11 12 11 10 10 10 10 10 10 10 10 11 12 12 12 12 12 13
12 8 9 7 3 2 7 6 11 10 9 5 6 6 7 4 3 7 6 6 7 5 16 22 22 11 11 13 16 15 14 12 13 15 16 16 16 17 17 15 15 17 18 19 19 19 20 19 19 19 20 19 18 19 20 20 21 16 17 17 17 15 15 13 13 10 10 12 12 12 13 13 12 11 9 9 11 12 11 12 12 12 12 13 13 13
10 5 6 1 1 5 11 10 8 8 9 10 9 7 7 5 6 5 8 3 5 8 2 18 18 13 11 13 12 12 12 16 16 17 19 18 16 14 14 16 17 17 17 17 18 19 20 21 21 20 19 18 19 19 19 19 18 15 18 19 17 14 14 14 16 17 11 7 8 9 10 11 12 12 11 11 12 12 12 12 13 13 12 13 13 13
12 10 6 4 8 9 9 9 9 5 9 8 9 7 4 2 6 5 4 7 9 8 6 2 10 10 10 13 13 11 12 18 16 20 20 19 19 18 19 18 17 16 15 16 17 17 17 18 19 20 21 20 19 19 18 17 17 18 17 19 19 16 15 16 17 18 15 9 8 6 6 9 8 9 9 10 9 8 9 10 10 11 11 13 13 13
7 5 4 8 9 10 11 9 9 8 7 7 5 6 3 1 2 4 6 5 8 9 1 3 7 10 9 14 13 12 15 18 17 20 19 18 18 18 17 17 16 17 16 16 17 19 20 20 19 20 20 19 19 18 17 17 17 19 18 18 18 16 15 16 18 19 15 15 10 10 9 10 10 10 10 8 7 6 8 9 11 10 9 11 12 13
9 15 13 11 10 9 8 9 9 9 4 7 4 3 2 2 6 4 6 4 8 5 7 10 8 12 8 10 12 10 16 18 20 20 20 18 19 18 18 17 18 17 17 15 17 18 18 19 18 19 18 18 17 16 16 17 17 20 20 20 19 16 16 16 18 18 17 14 16 15 11 9 10 9 12 10 9 9 9 11 12 9 8 9 10 11
9 13 14 12 9 9 7 6 8 8 4 4 4 2 4 5 6 6 7 6 2 4 10 8 9 7 9 9 9 14 17 18 19 18 18 18 18 17 18 18 18 17 17 17 17 18 18 18 18 17 18 17 17 17 17 16 16 16 17 19 19 19 17 17 21 18 19 16 16 14 14 15 12 11 9 10 9 8 8 12 11 10 10 9 9 9
5 9 6 7 9 6 6 7 6 7 5 2 1 3 4 5 6 5 6 5 3 5 8 8 8 9 9 9 10 9 16 16 14 14 15 16 17 16 16 17 17 16 15 16 17 17 18 18 17 15 15 18 17 15 16 16 16 16 16 20 21 21 18 18 20 19 20 18 16 15 16 17 15 15 13 11 10 10 9 8 8 8 8 8 7 8
3 0 2 10 8 6 5 5 3 5 3 1 3 2 7 6 4 4 4 1 5 11 9 9 6 3 8 11 12 11 11 9 9 10 11 13 15 16 15 16 16 15 16 15 15 16 16 15 16 18 19 18 18 16 17 17 17 16 17 19 21 20 18 19 19 20 20 17 17 15 17 18 17 18 16 15 13 12 11 11 11 9 7 7 8 7
12 10 6 4 3 7 3 3 4 3 1 4 0 5 6 5 3 5 4 3 5 8 8 11 17 10 9 5 8 9 7 9 10 11 13 14 14 14 14 14 15 16 15 16 17 19 20 22 22 22 23 22 20 20 21 18 18 18 17 19 21 21 21 19 19 19 19 16 17 17 17 18 17 17 14 15 15 15 15 13 11 9 9 7 5 7
13 13 7 4 1 17 8 2 7 7 10 3 3 3 2 2 2 4 1 4 6 7 2 3 2 13 12 7 6 8 8 9 9 9 10 11 12 12 13 14 13 13 15 16 16 17 18 18 20 21 21 21 21 20 21 20 17 17 18 21 21 22 22 19 19 19 19 18 17 17 17 17 15 16 16 14 14 14 14 13 14 13 11 9 9 9
6 2 19 14 3 14 12 6 5 5 9 7 3 1 1 4 2 4 3 3 4 5 3 5 12 10 9 7 6 7 8 7 7 7 8 9 10 10 12 12 13 13 14 14 15 16 16 17 17 18 18 18 18 21 20 20 19 17 16 18 20 20 20 19 19 19 19 18 17 16 15 15 14 15 15 14 13 14 12 12 13 13 12 12 11 11
6 6 15 16 9 13 10 7 5 3 4 6 2 4 5 4 2 5 1 6 7 7 6 2 2 6 7 5 3 3 4 7 6 6 6 7 8 8 9 11 12 14 15 14 15 16 17 17 18 17 17 17 18 20 19 19 19 18 18 19 22 21 21 21 20 18 19 17 17 16 16 14 13 13 14 13 12 14 14 13 13 12 11 11 12 11
6 7 7 8 4 8 10 6 1 3 2 4 1 2 5 5 5 4 4 4 6 8 6 5 5 6 9 9 3 1 3 7 6 7 7 9 9 9 9 11 13 14 14 14 15 16 18 17 17 16 17 16 17 19 18 20 19 19 20 19 19 19 19 19 20 18 17 16 15 16 18 17 15 13 13 12 12 13 13 14 13 13 12 11 11 11
1 8 7 8 1 10 8 7 7 3 3 2 1 6 4 3 2 4 4 4 2 6 7 4 7 7 7 3 11 5 5 6 6 7 9 10 12 11 11 11 12 13 13 14 15 15 17 17 17 16 17 16 17 17 18 20 19 20 21 21 22 21 19 20 19 18 17 16 17 17 17 17 17 17 17 15 17 16 14 13 13 12 13 13 11 10
3 5 3 8 11 11 5 2 4 14 3 2 6 4 2 0 1 2 4 1 3 4 2 4 5 5 4 3 7 6 7 9 11 12 13 13 13 13 12 12 12 13 12 13 14 14 15 16 17 16 16 17 17 18 18 19 18 17 17 20 21 22 24 22 20 19 18 19 18 17 18 18 17 16 16 16 17 16 14 14 12 12 12 13 12 12
4 4 4 5 4 6 10 5 6 13 14 9 6 1 3 2 2 4 0 3 3 2 2 3 4 3 1 1 6 9 10 10 11 12 13 14 14 13 13 13 12 12 12 13 14 14 14 15 16 16 17 17 17 17 17 17 17 17 17 18 17 20 20 20 18 18 15 16 14 13 17 18 18 16 16 15 16 15 15 16 15 14 13 13 12 11
2 1 2 5 8 5 6 9 8 10 7 5 4 4 2 3 4 3 3 0 0 3 2 3 5 2 2 2 3 5 7 8 9 10 11 13 14 12 12 11 11 12 12 13 13 13 14 14 15 16 17 17 18 17 17 17 16 18 17 18 19 19 18 19 21 19 19 17 15 17 17 17 16 16 16 16 16 16 16 16 16 17 17 15 13 12
1 3 2 5 9 2 5 7 8 9 9 9 8 7 5 4 2 2 2 2 2 1 1 1 2 3 4 1 1 3 6 7 9 9 9 11 13 13 12 12 10 12 13 13 13 13 14 14 15 15 16 16 16 15 16 16 17 17 17 18 19 20 21 22 20 20 18 18 18 19 20 20 18 20 17 18 17 16 16 16 16 15 15 16 15 14
2 4 2 3 6 9 5 5 4 7 8 7 5 6 6 4 0 0 2 2 2 1 2 1 0 4 5 2 1 3 4 6 8 8 8 10 13 13 12 12 11 12 13 13 14 14 14 15 15 15 14 15 15 16 19 17 16 18 18 17 18 18 18 20 20 19 20 18 17 19 20 20 18 17 18 19 18 17 17 17 16 16 17 16 17 15
3 1 1 5 4 2 4 3 2 2 5 9 8 5 3 2 2 1 1 1 0 3 2 1 2 2 7 4 1 1 4 5 6 7 8 9 11 12 11 11 10 11 12 13 14 13 14 15 15 15 16 16 16 15 17 16 16 16 17 18 17 18 19 19 18 17 17 18 19 21 19 18 18 18 21 21 18 18 18 17 18 16 17 17 17 16
3 3 2 1 1 1 2 2 3 3 2 1 7 7 6 5 4 3 3 2 0 1 1 1 2 3 7 3 2 1 2 4 4 6 7 8 9 10 11 10 10 12 12 13 12 12 13 14 14 15 17 17 16 16 17 15 16 16 16 16 17 19 20 19 18 17 18 18 19 19 19 19 19 20 19 20 18 20 20 19 17 17 17 17 16 17
1 2 1 0 0 1 2 2 2 1 0 3 2 6 5 5 5 4 2 1 1 3 2 1 2 1 8 5 3 1 4 5 6 7 6 8 10 10 10 8 9 11 12 14 14 14 15 15 16 16 16 16 16 16 16 16 16 16 16 16 18 17 18 17 16 17 18 18 20 19 18 19 19 19 21 20 18 21 22 20 18 17 17 17 17 17
2 1 1 0 2 2 1 1 2 2 4 2 1 2 4 3 4 2 1 0 1 2 3 2 1 3 6 6 3 2 4 3 4 5 5 6 10 11 9 8 8 10 11 14 15 15 16 14 14 15 16 15 15 15 16 16 16 16 16 16 15 16 17 17 16 17 17 17 18 18 20 19 19 19 21 20 20 21 20 19 19 19 17 17 19 18
3 2 2 1 0 0 0 1 1 3 4 1 3 6 1 1 1 0 0 2 2 3 5 8 3 2 6 8 3 2 3 4 5 4 5 7 9 8 8 7 8 9 11 14 14 14 14 15 16 15 15 14 15 15 14 15 15 16 16 17 17 15 15 15 16 18 17 17 17 16 17 19 19 18 18 19 19 18 18 19 20 19 19 18 18 18
1 1 0 2 2 2 3 5 3 4 5 6 6 3 2 2 2 4 5 2 3 4 6 6 8 9 6 4 3 4 4 4 4 4 4 6 8 7 8 6 8 10 11 12 12 14 15 15 16 16 16 16 15 15 14 13 13 14 14 16 16 16 16 14 16 17 17 17 17 17 18 17 18 18 18 18 18 19 19 18 21 20 18 18 19 18
0 1 3 1 4 6 7 9 7 5 5 7 7 7 6 4 5 8 9 8 6 5 4 3 4 7 8 6 4 5 5 5 5 5 4 7 8 7 7 7 8 11 11 12 12 12 13 14 14 16 16 16 16 16 16 13 13 13 13 13 14 14 16 16 16 16 16 17 16 17 17 17 16 16 18 19 19 19 19 20 19 21 21 19 18 16
0 1 2 1 6 8 8 7 5 6 3 4 8 9 10 6 8 10 10 10 11 11 9 7 7 12 11 10 7 6 4 4 5 4 5 6 8 7 7 7 9 10 11 12 12 12 12 13 13 14 14 15 16 16 16 14 14 14 14 15 14 15 15 15 15 15 16 16 16 17 17 17 16 17 18 19 19 19 19 19 20 19 19 20 19 18
1 1 1 1 3 4 1 2 3 5 3 4 8 10 10 8 7 9 9 9 9 11 12 13 13 15 11 7 7 5 4 4 5 6 6 7 7 7 7 8 9 10 11 12 12 12 12 12 12 12 13 13 14 14 13 13 13 14 14 14 14 14 15 14 15 15 15 16 16 16 17 17 16 17 18 19 19 19 20 20 19 19 20 20 18 19
2 1 2 1 4 1 2 2 4 3 5 7 10 11 9 7 6 5 6 9 9 9 6 6 9 11 6 7 5 5 5 5 7 7 7 7 8 7 8 8 9 10 11 12 12 12 13 12 12 12 13 13 13 13 13 13 13 13 14 15 15 15 14 14 14 15 15 16 16 16 17 17 18 18 18 18 19 20 20 19 20 20 20 20 21 18
2 1 1 3 3 2 2 5 6 7 5 5 7 12 15 10 9 6 7 8 12 10 7 7 9 5 2 6 6 7 5 6 7 7 7 9 9 8 9 9 9 9 11 11 12 12 12 12 12 12 12 12 12 12 13 13 13 13 14 15 15 14 14 14 14 15 15 15 15 16 16 17 18 18 18 18 18 17 18 20 20 20 20 21 20 19
1 1 2 1 2 3 6 9 6 3 3 1 3 3 13 13 11 10 10 11 13 11 8 5 7 1 4 5 7 7 6 7 7 8 7 8 10 9 9 9 9 10 10 11 11 12 12 11 10 11 12 13 13 13 13 12 12 12 13 13 14 14 14 14 14 14 15 15 15 16 16 17 18 19 19 19 18 18 18 19 19 19 19 18 19 19
1 1 2 1 1 4 4 7 4 1 2 4 2 2 4 5 7 12 12 10 10 13 10 5 7 6 7 6 6 5 6 7 8 11 11 10 11 10 10 10 10 10 11 12 12 12 12 12 12 12 12 12 12 13 12 12 11 12 13 13 14 14 14 14 14 14 14 15 15 15 15 16 17 19 19 19 19 19 19 19 18 19 18 17 18 19
2 2 1 2 3 3 2 0 2 3 4 10 11 7 2 2 5 4 10 12 12 12 11 13 12 9 7 7 6 6 7 8 9 12 12 11 10 10 10 9 10 11 12 11 12 13 13 12 12 12 13 12 12 12 11 12 12 12 13 14 14 14 14 14 14 14 14 15 15 16 16 17 17 18 19 20 20 20 20 19 18 18 18 17 17 17
4 2 2 3 2 2 1 3 7 8 14 4 4 4 6 4 6 7 7 7 9 11 11 11 9 7 7 7 7 7 6 7 9 12 9 10 9 9 10 11 11 12 12 13 12 13 12 12 12 13 12 12 12 12 12 11 11 12 13 14 13 14 14 14 14 14 15 15 16 16 16 17 17 18 19 19 20 21 20 20 20 18 15 17 18 17
6 3 0 2 1 2 4 6 4 1 2 2 2 4 2 3 5 3 1 11 7 9 12 11 9 8 7 7 8 6 3 6 11 10 3 6 6 8 9 10 11 11 12 13 12 12 12 12 11 12 11 13 13 13 12 11 11 12 13 14 14 14 15 14 14 14 15 15 15 16 16 17 17 18 19 19 20 21 20 19 17 17 15 17 18 18
5 6 4 3 4 2 3 3 2 2 4 2 2 3 2 1 5 5 1 10 3 10 10 11 8 7 7 8 8 4 5 8 11 10 5 1 5 7 10 11 12 12 13 13 13 14 14 13 12 12 13 14 15 14 13 13 13 13 13 14 14 14 15 15 15 14 15 15 15 16 16 16 17 17 19 20 20 19 21 20 18 17 16 16 16 17
5 4 4 5 7 6 4 4 6 4 6 1 2 2 2 3 6 1 7 3 3 6 10 10 9 8 9 10 8 7 8 10 11 10 6 8 9 10 11 13 13 13 13 13 13 13 14 14 12 13 13 14 15 14 13 13 12 13 13 14 13 14 15 16 15 14 14 15 16 15 16 16 17 17 18 19 21 20 20 19 18 18 18 17 15 15
3 4 3 8 6 8 9 8 6 9 9 10 9 6 5 3 4 2 8 1 7 8 9 10 9 9 10 10 8 10 11 13 15 14 12 12 12 13 12 12 13 13 14 14 14 14 12 12 12 13 14 13 14 13 12 11 11 13 14 14 14 15 15 15 14 14 14 14 15 16 17 16 16 18 19 18 18 18 18 18 18 19 18 17 15 14
1 0 2 2 5 8 6 6 9 9 13 10 6 10 9 4 4 9 1 2 9 9 9 9 10 11 10 11 10 11 12 13 13 11 12 12 13 13 14 14 15 14 13 13 14 14 13 13 13 15 15 14 13 12 11 11 12 13 13 13 15 17 16 14 14 14 14 15 15 16 16 17 16 15 15 15 16 17 18 18 18 17 17 15 15 17
6 5 4 6 3 3 1 4 6 8 1 5 12 7 3 4 4 2 4 3 6 8 9 10 10 11 9 10 12 14 14 14 13 13 13 13 12 13 14 15 15 16 16 16 15 15 13 12 14 14 15 13 13 11 11 11 13 14 13 14 17 16 14 14 14 14 15 15 15 15 15 14 16 17 15 17 17 17 18 17 17 17 14 14 15 16
5 2 2 3 6 3 6 7 8 3 3 10 12 5 9 13 0 4 2 3 7 6 7 6 8 9 9 11 12 12 13 13 13 12 13 13 12 13 14 14 15 16 16 16 16 17 15 14 14 15 15 14 12 11 12 11 12 13 12 16 16 13 12 11 12 11 12 13 13 14 14 16 16 17 16 18 17 17 18 19 17 16 14 14 13 13
12 8 2 3 5 7 7 9 6 1 2 7 8 3 0 5 1 2 2 5 6 7 4 7 8 7 9 11 13 13 13 13 14 13 14 14 14 14 15 15 15 16 16 16 17 17 15 14 16 16 16 15 15 13 12 10 14 17 17 17 13 13 12 11 11 11 13 13 14 15 15 15 15 17 17 17 16 16 16 19 18 16 15 13 12 11
1 9 4 3 6 7 12 9 7 7 9 10 9 7 9 8 8 6 7 9 7 8 5 8 8 9 11 10 11 12 12 13 14 14 14 13 13 14 15 15 16 15 16 16 16 16 15 13 13 15 16 17 17 16 15 13 12 17 18 16 14 13 12 11 12 14 15 15 14 16 16 17 17 18 17 18 14 15 14 16 17 16 14 12 13 9
4 4 3 7 0 2 9 9 16 18 17 11 8 7 8 8 10 8 8 8 10 9 9 9 10 10 11 10 12 13 13 12 14 15 14 12 14 15 15 16 16 15 15 16 17 15 13 11 13 14 13 14 17 15 13 13 14 14 14 14 13 12 12 12 13 14 14 15 15 15 15 16 13 14 16 17 15 14 14 14 16 16 14 13 14 12
3 5 5 11 8 10 11 1 9 11 3 3 5 8 10 10 9 8 9 10 10 10 10 11 9 11 9 10 12 13 15 13 14 14 13 13 13 13 14 15 16 16 16 16 16 13 13 14 12 14 13 16 17 16 15 12 12 14 13 12 13 13 13 13 13 13 14 16 15 13 14 14 19 19 15 15 14 15 16 14 14 15 13 11 12 12
3 7 7 4 6 9 11 17 23 17 14 16 16 15 13 13 13 14 13 12 10 10 10 10 9 11 9 12 11 12 15 16 14 14 15 14 14 13 13 14 15 16 16 17 16 13 14 13 13 16 14 17 17 16 11 14 15 12 16 14 14 13 13 13 14 14 15 15 14 15 13 13 13 14 15 16 16 15 14 15 16 16 15 14 11 12
4 11 7 2 9 9 12 15 5 6 7 8 13 14 13 11 8 10 9 8 10 11 9 10 11 10 11 12 11 12 15 15 15 14 15 14 14 15 15 15 16 17 17 16 14 13 13 14 13 14 15 16 16 13 11 15 14 12 11 14 13 13 14 14 11 12 13 13 13 14 13 13 14 14 15 15 15 16 17 18 19 18 15 14 16 20
13 17 7 10 10 14 12 12 8 13 15 13 11 8 7 7 6 8 10 11 11 11 11 11 13 14 12 11 10 12 15 15 17 15 15 14 14 14 15 16 16 16 16 16 14 15 15 15 16 17 18 17 14 12 15 14 13 13 12 13 13 14 14 12 10 11 12 13 12 14 14 14 14 15 15 15 15 15 16 18 16 16 20 21 22 22
Wind_Direction
341 78 68 72 52 14 18 14 81 93 96 99 92 92 90 99 88 80 61 25 295 72 37 71 74 65 56 45 42 35 56 49 47 46 42 36 32 28 26 26 22 24 17 5 12 15 14 14 13 11 13 14 17 19 13 11 10 10 5 1 350 334 319 300 285 272 265 256 247 247 249 246 242 245 246 247 246 246 248 248 244 242 242 238 234 226
145 80 58 33 344 337 328 347 74 99 107 110 112 108 98 95 91 57 46 357 181 119 68 79 72 64 58 49 42 42 52 47 42 46 47 42 39 36 29 25 24 11 10 12 16 12 15 13 11 12 12 12 15 11 12 12 6 1 1 3 351 343 336 319 300 288 274 264 264 264 260 258 258 253 247 248 249 248 249 248 248 245 244 244 241 236
71 74 36 359 344 322 31 67 37 88 99 97 114 117 106 92 102 103 58 38 23 97 105 86 78 65 59 58 48 48 55 50 46 48 47 43 40 34 29 25 20 17 14 16 14 13 14 12 13 13 12 13 13 8 11 9 8 8 5 359 351 344 341 335 319 298 284 274 266 264 268 269 270 265 264 264 262 255 251 251 248 246 246 247 246 244
86 62 3 348 313 316 65 57 90 71 57 86 123 128 112 128 187 111 54 55 41 92 114 90 86 70 67 58 60 55 49 49 45 43 46 42 41 36 32 28 22 20 17 18 13 10 10 12 14 15 14 11 8 9 9 8 7 6 5 359 354 355 353 345 339 311 280 275 273 272 273 271 270 276 285 281 271 268 262 255 251 249 247 246 247 245
70 11 335 337 47 81 75 44 57 87 77 45 38 70 105 100 34 68 120 95 81 56 68 103 82 74 45 45 45 44 41 43 31 34 36 37 38 38 37 35 30 25 21 18 16 14 12 12 14 16 14 11 13 11 9 8 7 2 360 359 358 358 360 357 351 344 317 272 267 268 269 272 277 273 269 270 266 261 260 261 257 253 248 247 247 246
42 13 299 82 73 66 71 63 19 347 95 80 44 27 29 7 99 88 124 150 131 129 33 315 92 61 56 52 49 39 36 41 30 36 31 28 28 28 30 29 27 29 26 24 21 18 16 14 12 16 16 16 12 12 9 6 5 4 2 1 1 1 2 1 356 352 347 323 298 279 269 275 271 276 275 264 256 257 256 254 260 257 246 252 250 249
39 343 350 57 69 72 72 62 19 341 95 80 36 357 353 111 117 144 162 208 149 140 61 319 127 106 68 49 30 38 43 42 36 37 30 28 27 28 29 27 26 23 20 22 22 19 18 15 15 16 16 13 11 8 4 3 3 5 7 5 5 4 1 2 359 358 359 352 332 307 293 286 283 286 283 276 270 264 269 273 272 260 245 233 238 244
354 24 30 33 54 57 61 63 17 353 66 71 16 351 349 7 77 87 130 104 97 99 90 42 67 109 83 48 31 28 47 39 34 30 28 26 26 27 27 26 26 25 24 22 20 20 19 19 18 15 13 13 9 3 4 4 3 4 5 5 6 6 4 3 1 1 3 359 356 343 322 297 291 285 289 289 284 290 289 284 279 272 254 239 231 235
7 34 23 21 39 51 41 2 335 329 32 52 3 339 51 54 60 66 89 99 71 140 90 42 353 89 55 22 32 22 38 32 34 27 25 24 24 24 24 23 23 24 23 22 21 19 18 17 16 13 12 11 12 12 9 6 3 1 2 4 5 7 6 4 3 2 4 4 0 0 357 344 329 309 293 291 291 280 281 281 281 277 275 262 240 234
48 48 23 22 31 44 346 352 351 341 80 75 296 84 96 82 64 65 110 94 56 79 59 17 349 97 67 26 17 26 39 28 25 26 26 25 24 23 21 20 20 21 22 22 22 19 18 17 16 13 11 15 13 10 8 7 6 6 5 4 6 8 5 3 3 2 1 4 3 2 355 353 347 342 329 317 307 303 297 283 276 270 273 267 255 235
89 306 324 42 13 321 300 319 321 355 349 274 244 154 87 62 61 70 60 45 98 61 43 9 11 90 92 35 23 23 24 7 13 24 24 24 26 25 23 22 20 18 17 18 17 20 19 15 14 12 15 13 13 10 9 9 7 6 8 4 6 7 4 3 2 1 2 1 2 1 357 353 349 346 342 336 328 320 312 307 304 294 273 253 258 255
65 58 45 49 316 349 250 292 207 250 177 192 83 125 121 84 89 84 58 41 88 80 62 43 60 63 103 63 36 34 27 24 20 20 17 20 24 24 22 20 19 18 16 13 15 13 10 10 12 11 11 7 6 8 9 8 6 6 5 4 3 6 5 3 0 1 1 0 0 358 355 353 349 345 343 339 334 333 327 321 313 308 300 289 255 245
51 43 22 46 188 13 345 329 68 44 23 39 119 150 176 122 159 100 33 80 62 98 99 0 356 62 62 65 43 31 28 27 28 24 20 19 20 21 21 21 21 20 17 17 16 14 13 13 9 8 6 5 5 4 2 3 3 3 4 4 4 2 2 1 360 2 360 1 360 356 353 350 346 342 340 336 338 338 334 330 324 318 311 306 298 292
82 109 27 358 33 6 2 50 22 65 10 30 39 14 171 133 85 91 65 359 91 75 49 52 84 90 113 78 29 34 35 31 23 23 21 17 19 20 20 19 21 22 21 20 17 16 15 12 8 7 5 5 3 2 1 0 1 0 359 1 3 0 359 358 360 359 359 359 358 356 353 348 344 341 338 336 334 334 333 329 325 321 315 308 300 296
53 32 19 360 24 341 27 38 349 1 357 43 345 18 47 43 60 118 134 118 103 92 106 298 23 156 114 68 14 34 37 21 17 18 22 23 24 25 23 24 23 21 22 18 17 16 13 10 8 6 5 3 2 0 0 0 358 356 359 359 358 358 358 358 357 355 356 356 355 355 351 347 346 340 336 334 333 330 328 325 321 317 314 309 307 304
36 67 351 354 297 314 18 353 269 301 208 56 0 302 46 43 316 70 46 75 106 124 112 47 58 92 111 121 116 42 43 23 17 23 22 30 30 27 26 25 23 21 17 15 13 12 10 9 6 6 6 3 1 360 358 358 357 357 356 355 355 354 352 354 354 354 353 351 350 351 350 348 345 341 339 335 334 330 327 321 317 314 312 311 306 302
88 58 346 325 199 20 359 344 37 260 44 26 285 44 34 291 315 106 102 35 268 78 68 85 106 106 132 159 59 58 38 30 25 27 28 26 24 26 27 25 24 19 16 13 11 8 5 5 6 5 3 1 1 1 360 358 356 354 353 353 351 352 353 353 353 351 348 348 346 346 347 348 348 347 344 338 333 330 325 320 317 315 315 313 313 314
11 79 357 8 8 10 351 259 344 39 340 264 68 59 15 24 301 334 94 55 68 95 69 60 95 136 205 168 32 26 27 22 18 17 19 21 18 20 19 20 21 17 15 13 11 8 6 4 3 3 1 359 357 357 355 356 355 353 353 353 351 351 351 350 351 350 348 347 346 344 345 345 345 342 340 338 334 332 328 324 319 317 314 314 313 313
324 99 29 53 309 330 339 297 68 40 30 55 74 309 264 100 135 38 339 82 100 74 110 113 99 106 353 347 4 6 15 14 12 11 12 15 16 14 13 13 15 12 11 10 8 5 4 2 1 359 357 356 355 355 354 353 353 353 353 352 352 350 349 347 346 346 346 347 342 340 341 341 340 339 337 336 334 331 328 326 321 316 314 309 309 308
321 19 124 23 0 315 0 15 43 342 41 85 209 50 25 24 53 55 24 213 336 134 150 160 198 180 137 14 337 355 11 14 11 12 13 11 12 9 7 6 8 8 9 5 3 2 0 0 0 358 356 354 353 353 352 351 351 353 353 351 351 349 350 350 349 347 345 345 342 338 338 341 339 338 336 335 335 333 332 329 328 325 320 317 311 307
344 304 55 2 356 274 39 17 37 9 4 4 28 24 20 46 299 86 77 11 352 125 109 139 188 152 138 199 268 356 7 13 15 9 10 11 8 5 3 3 7 6 4 2 358 356 357 359 358 357 355 353 350 351 352 351 351 350 350 352 353 352 349 350 349 347 345 341 341 340 340 339 340 338 336 335 335 333 331 329 326 322 317 314 309 309
5 6 52 341 23 48 71 35 351 14 15 34 26 37 357 347 143 141 67 138 3 281 169 185 56 117 138 198 189 12 9 9 16 8 5 7 7 2 359 0 6 2 0 356 354 353 354 354 355 354 353 353 352 352 353 351 349 351 351 350 350 350 351 349 347 345 342 340 338 339 336 336 336 337 335 335 334 333 332 330 328 325 318 314 310 308
13 225 343 56 39 48 19 19 42 298 328 53 35 37 355 16 344 328 129 165 245 70 64 41 295 143 142 142 178 292 18 18 14 9 3 3 2 358 356 357 3 0 355 352 353 354 354 352 350 350 351 352 352 350 349 350 350 349 348 349 350 349 348 347 344 341 340 337 337 336 335 335 336 336 337 335 334 332 332 330 328 326 319 313 310 306
172 13 46 79 49 174 193 125 132 54 262 198 54 31 28 32 2 7 17 45 273 114 216 156 252 139 167 174 215 244 25 19 7 13 1 356 357 354 353 355 358 353 352 353 353 353 351 349 349 349 350 350 350 350 349 348 348 349 349 349 347 347 346 345 344 341 339 337 334 334 334 336 336 335 336 334 331 329 330 328 325 324 321 314 308 305
280 59 332 179 204 181 196 217 213 209 133 51 23 37 39 59 65 51 52 343 243 211 333 251 260 135 174 191 218 301 25 12 359 356 356 348 352 350 348 350 352 348 347 352 352 349 348 349 351 351 348 346 345 345 347 348 347 349 348 349 346 343 343 341 340 340 337 336 334 334 335 335 337 335 333 332 329 327 326 325 323 322 320 317 309 305
57 10 309 31 49 38 24 11 10 1 11 356 61 17 37 34 80 156 141 332 243 125 160 224 241 79 142 187 200 39 21 346 346 341 337 346 347 344 339 339 346 345 346 347 346 348 348 346 343 344 345 344 345 345 343 344 345 346 347 346 345 342 341 340 339 338 335 333 333 333 335 335 335 333 332 329 327 326 324 323 322 321 319 319 313 305
102 98 45 38 10 67 40 23 69 326 319 311 295 328 13 105 78 349 207 213 258 147 209 225 261 117 193 201 245 335 332 317 320 322 324 333 337 332 326 322 336 342 347 347 344 340 337 339 341 341 342 342 341 341 342 342 341 343 343 342 344 343 338 337 336 335 333 332 331 331 334 333 332 330 327 327 326 323 321 321 322 320 318 316 312 306
109 118 66 119 231 247 290 261 263 296 273 259 276 288 171 201 207 197 207 196 128 141 246 232 225 240 251 195 227 282 280 282 289 292 302 320 325 322 318 306 321 339 344 341 337 337 336 334 335 337 338 338 339 338 339 340 340 341 341 339 339 340 339 337 335 332 332 332 331 333 333 331 329 326 325 325 322 321 320 320 321 318 316 315 312 305
64 134 182 286 253 268 271 271 273 275 249 248 251 264 267 228 210 214 225 222 196 215 258 95 182 218 241 231 244 266 263 271 281 275 293 308 306 312 317 312 324 333 334 333 330 330 330 331 332 333 334 334 334 335 336 338 340 341 339 337 337 335 334 332 331 331 332 332 332 331 329 327 326 324 324 323 322 321 320 319 319 320 317 314 310 305
267 42 161 237 280 278 262 245 240 223 231 257 247 250 261 239 220 224 231 224 214 236 263 273 263 256 255 262 256 257 243 259 265 267 280 293 309 313 311 303 316 324 327 326 325 325 325 325 326 327 327 327 330 331 334 336 338 338 336 334 333 331 330 331 329 329 330 330 330 329 327 324 323 323 322 321 320 319 319 319 317 315 313 312 308 306
294 107 14 342 305 291 252 267 231 222 194 252 251 255 253 246 246 234 237 238 234 258 260 267 270 272 262 243 235 216 234 246 248 254 278 299 308 304 295 294 303 314 320 320 320 320 319 319 319 320 320 322 324 327 328 330 331 330 328 329 328 327 327 327 325 327 328 327 327 326 325 326 322 321 322 320 318 318 316 317 317 314 313 311 309 307
321 72 51 177 314 278 309 301 267 326 270 251 259 246 227 201 217 200 205 205 190 214 224 241 258 252 244 172 183 206 230 247 265 281 293 301 306 294 283 284 294 307 314 314 314 314 314 315 316 316 317 319 320 322 325 326 326 325 325 326 325 323 322 323 322 323 323 323 323 324 325 324 323 322 319 318 316 316 317 315 316 315 313 312 310 307
33 356 337 352 306 271 295 280 288 281 264 265 248 223 208 202 213 197 220 193 207 198 187 201 234 246 155 162 204 212 226 265 271 276 292 301 297 291 280 277 282 298 304 305 305 306 306 308 310 311 312 314 315 317 317 319 318 318 319 319 317 317 317 318 319 318 318 319 322 323 324 322 321 319 316 315 314 312 313 314 312 314 314 312 309 305
306 301 329 335 309 296 339 318 304 292 263 215 22 201 176 192 207 230 231 218 213 201 233 245 270 126 181 199 217 234 241 253 271 280 281 283 287 281 270 263 273 288 296 297 298 298 298 300 304 306 306 307 307 310 310 309 307 307 310 308 309 310 311 312 313 314 314 317 320 322 321 321 320 316 314 313 311 311 310 311 309 309 310 308 307 304
243 281 247 46 253 285 335 315 299 255 239 44 0 38 164 228 253 255 259 238 217 217 234 262 255 224 223 223 229 249 265 272 271 274 277 275 274 269 267 272 278 290 294 296 295 296 297 298 298 300 302 304 306 304 304 303 305 307 306 307 307 305 307 308 309 311 313 316 319 320 321 319 318 315 312 311 310 309 307 307 308 308 310 309 306 304
214 214 222 239 230 261 260 353 352 249 325 279 269 269 210 231 254 268 267 244 237 225 221 233 235 224 224 225 242 262 268 279 282 272 264 267 266 264 263 269 283 292 293 292 293 291 291 293 293 294 293 295 295 296 295 295 301 304 303 304 300 300 301 302 305 307 312 316 318 319 320 319 316 314 312 311 309 308 306 305 307 308 309 307 304 299
226 224 246 282 196 251 256 256 249 326 311 318 129 144 172 180 178 201 264 257 211 216 211 226 226 213 219 236 250 267 282 293 286 276 241 245 251 249 248 267 278 284 287 287 285 284 282 283 283 282 284 285 287 288 289 291 295 297 299 299 297 298 299 300 303 306 312 313 314 316 317 317 314 312 309 309 307 307 305 305 305 307 308 305 302 299
215 225 236 282 253 213 293 305 291 281 274 253 112 74 61 35 69 60 13 277 218 214 204 207 212 205 222 241 250 259 300 293 280 284 225 185 222 243 247 261 273 273 275 279 280 277 275 275 275 277 280 286 286 284 284 286 291 295 296 295 296 298 298 298 300 306 309 310 313 314 313 312 311 308 307 307 305 305 304 303 301 300 304 302 300 296
223 247 278 249 277 300 261 261 269 261 247 37 131 133 107 106 130 140 245 281 227 191 172 189 197 207 225 241 244 183 253 266 273 286 296 268 260 252 262 265 268 273 274 272 273 275 274 270 270 275 279 279 278 278 281 287 292 292 289 290 291 293 294 293 297 303 306 308 310 310 309 308 306 306 305 306 303 304 303 302 301 300 301 299 295 290
200 215 221 234 239 236 245 248 244 215 252 177 166 194 121 143 147 229 302 285 130 169 164 177 196 215 240 236 230 212 223 262 278 293 317 305 293 277 269 274 275 274 273 271 266 261 264 268 270 267 265 266 268 274 280 284 285 283 282 284 286 289 287 287 291 299 302 305 307 307 306 305 303 302 303 303 302 302 300 299 299 298 302 300 295 292
204 229 225 231 237 248 240 256 277 266 258 238 210 151 156 164 203 257 236 321 165 176 179 182 214 241 245 237 206 232 221 230 264 282 288 289 287 282 273 267 266 266 269 272 270 269 268 266 260 262 263 264 267 270 272 274 276 277 277 279 283 281 278 282 292 297 300 302 303 303 304 303 301 302 301 299 299 299 298 297 297 298 299 298 295 292
310 71 287 57 236 232 234 248 252 276 260 227 173 156 159 155 216 223 242 99 164 188 195 201 232 238 234 225 224 231 250 252 256 267 271 270 268 272 277 278 279 276 267 258 258 261 264 266 264 265 267 265 263 263 265 266 267 268 272 275 275 274 278 286 292 296 299 299 299 300 299 299 299 298 299 299 301 300 298 296 293 292 295 296 294 292
182 165 205 187 179 69 150 246 307 288 39 131 121 107 187 229 253 100 120 187 169 201 222 233 230 242 225 243 233 245 257 256 253 259 265 268 269 270 272 276 277 277 278 278 275 267 264 267 268 265 265 266 268 269 267 261 265 270 270 268 270 276 284 289 291 293 296 297 296 295 294 295 297 299 301 301 301 299 296 296 296 294 292 289 291 288
161 239 230 222 182 182 179 183 212 228 73 170 163 187 187 217 132 135 149 224 197 218 243 251 230 227 235 245 263 266 256 252 254 251 259 262 260 262 264 264 266 268 269 267 266 269 270 272 271 272 273 273 268 266 265 263 267 268 270 267 270 276 281 282 285 288 291 293 293 295 294 295 297 297 298 298 299 299 296 297 295 292 290 292 290 287
179 209 196 258 165 201 207 214 238 349 200 211 244 300 248 246 7 209 232 255 270 266 237 259 257 239 239 256 264 262 264 252 253 256 263 268 270 271 272 271 269 269 268 270 271 273 275 271 273 274 276 277 276 271 269 261 269 276 273 271 273 278 281 285 289 289 290 290 294 294 294 296 296 296 295 295 297 299 297 296 295 293 294 291 285 278
173 224 54 309 238 254 273 260 302 287 248 239 243 259 274 274 264 247 251 270 253 266 249 254 262 265 265 258 264 262 250 255 260 263 262 263 267 269 270 272 271 267 266 266 267 266 271 273 268 269 271 274 274 271 270 267 261 271 270 276 280 279 282 288 289 289 290 292 292 292 294 295 294 293 292 294 293 292 289 294 295 293 293 291 284 273
222 172 185 241 226 43 269 170 222 242 250 255 265 254 243 243 255 261 267 251 262 259 259 256 259 262 260 262 257 262 261 252 258 264 268 270 270 272 273 274 275 275 275 273 272 279 281 278 274 277 274 272 276 273 266 270 267 266 273 277 279 284 288 288 286 286 290 291 291 291 292 293 290 292 295 295 294 292 293 292 294 289 288 290 286 279
267 150 223 236 230 213 250 81 262 252 316 326 275 277 272 263 249 226 225 241 252 257 258 264 264 263 255 255 252 256 262 259 258 266 272 273 274 275 276 277 279 281 279 278 280 282 284 280 273 275 274 278 280 277 274 268 269 275 276 277 282 283 285 284 284 287 289 289 289 287 287 288 289 292 291 292 295 296 295 291 291 289 285 285 285 283
122 117 241 175 225 259 283 272 261 266 269 267 263 252 250 254 264 269 267 263 258 258 256 249 231 251 256 258 261 264 272 273 268 268 272 277 278 277 277 280 281 281 284 285 283 287 288 289 288 287 284 284 285 283 273 278 281 272 277 278 280 281 283 282 283 285 286 287 284 284 282 284 288 290 292 293 291 287 286 292 297 292 285 277 276 274
138 235 200 112 261 249 238 250 205 266 265 218 230 247 252 250 253 258 261 263 260 261 257 263 261 238 239 252 261 266 270 276 278 277 276 276 276 279 283 284 284 286 285 283 283 287 289 287 285 284 285 287 286 282 279 286 279 268 271 277 275 277 280 283 282 283 277 280 282 284 286 290 293 292 290 290 291 294 292 281 274 276 280 284 277 267
209 229 187 217 218 249 238 239 240 251 262 263 263 251 242 246 230 238 243 249 253 251 257 267 276 279 267 251 236 251 264 272 276 281 282 282 279 279 280 282 283 282 282 286 291 293 292 292 293 293 290 287 281 276 286 282 276 273 269 274 278 279 283 287 284 281 279 279 279 285 291 292 290 289 290 290 290 292 292 299 295 279 272 270 272 269